Regional Weather Roundup
Issued by NWS

Home | Current Version | Previous Version | Graphics & Text | Print | Product List | Glossary On
Versions: 1 2 3 4 5 6 7 8 9 10 11 12 13 14 15 16 17 18 19 20 21 22 23 24 25 26 27 28 29 30 31 32 33 34 35 36 37 38 39 40 41 42 43 44 45 46 47 48 49 50
000
ASUS43 KLMK 161802
RWRKY
KENTUCKY REGIONAL WEATHER ROUNDUP
NATIONAL WEATHER SERVICE LOUISVILLE KY
200 PM EDT TUE SEP 16 2014

NOTE "FAIR" INDICATES FEW OR NO CLOUDS BELOW 12,000 FEET
WITH NO SIGNIFICANT WEATHER AND/OR OBSTRUCTIONS TO VISIBILITY.

KYZ001>023-026-027-061>063-070>075-161900-
WESTERN AND SOUTH CENTRAL KENTUCKY

CITY           SKY/WX    TMP DP  RH WIND       PRES   REMARKS
PADUCAH        PTSUNNY   70  56  61 NE10      30.16F
HENDERSON      CLOUDY    64  54  68 N6        30.16F
OWENSBORO      PTSUNNY   66  56  70 N7        30.15F
HOPKINSVILLE   MOSUNNY   67  58  71 VRB7      30.14F
BOWLING GREEN  PTSUNNY   71  59  65 N6        30.12F
GLASGOW        CLOUDY    69  58  68 N7        30.12F
$$

KYZ024-025-028>034-038-045-046-053-161900-
NORTH CENTRAL KENTUCKY

CITY           SKY/WX    TMP DP  RH WIND       PRES   REMARKS
LOUISVILLE/SDF PTSUNNY   68  56  65 N8        30.13F
LOUISVILLE/LOU MOSUNNY   68  56  65 N7        30.14F
FORT KNOX      MOSUNNY   66  54  64 N6        30.12F
$$

KYZ035>037-039>044-047>052-055>060-089>105-161900-
NORTHEAST KENTUCKY

CITY           SKY/WX    TMP DP  RH WIND       PRES   REMARKS
LEXINGTON      PTSUNNY   67  57  70 N6        30.13F
COVINGTON      CLOUDY    61  51  70 NE7       30.16S
FRANKFORT      CLOUDY    65  56  72 NW7       30.13S
$$

KYZ054-064>069-076>088-106>120-161900-
SOUTHEAST KENTUCKY

CITY           SKY/WX    TMP DP  RH WIND       PRES   REMARKS
JACKSON        CLOUDY    66  62  87 CALM      30.11S
LONDON         CLOUDY    67  61  81 N10       30.11S
SOMERSET       NOT AVBL
MIDDLESBORO    CLOUDY    69  64  82 N6        30.10R
MONTICELLO     MOCLDY    69  64  84 CALM      30.12F
$$



USA.gov is the U.S. government's official web portal to all federal, state and local government web resources and services.